Date String (YYYY-MM-DD hh:mm:ss) UTC,Instrument flags,Ambient pressure (hPa),Sample flow (lpm),Bypass flow (lpm),Sample temperature (°C),Ambient temperature (°C),ASC tube jacket temperature (°C),LED temperature (°C),Box temperature (°C),Sample RH (%),Span deviation,Mass concentration (μg/m³),Mass concentration (μg/m³),Mass concentration (μg/m³)
DateTimeUTC,F1_M11,P_M11,Q1_M11,Q2_M11,T1_M11,T2_M11,T3_M11,T4_M11,T5_M11,U1_M11,ZSPAN_M11,X0_M11,X2_M11,X1_M11
2022-03-14 21:00:00,,0829.5,5.00,0.00,27.9,27.3,00.0,36.7,29.8,07.5,0000.0,0006.27,0002.03,0001.19
2022-03-14 21:01:00,,0829.5,5.01,0.00,28.0,27.3,00.0,36.8,29.8,07.2,0000.0,0005.77,0002.00,0001.18
2022-03-14 21:02:00,,0829.5,5.00,0.00,28.0,27.3,00.0,36.8,29.8,07.1,0000.0,0005.47,0002.00,0001.17
2022-03-14 21:03:00,,0829.5,5.00,0.00,28.0,27.4,00.0,36.8,29.8,07.1,0000.0,0005.31,0001.99,0001.16
2022-03-14 21:04:00,,0829.5,5.00,0.00,28.0,27.4,00.0,36.8,29.8,07.6,0000.0,0006.27,0002.02,0001.16
2022-03-14 21:05:00,,0829.5,5.00,0.00,28.0,27.4,00.0,36.8,29.9,07.5,0000.0,0006.75,0002.06,0001.17
2022-03-14 21:06:00,,0829.5,5.00,0.00,28.0,27.4,00.0,36.8,29.9,07.6,0000.0,0006.85,0002.12,0001.18
2022-03-14 21:07:00,,0829.5,4.99,0.00,28.0,27.4,00.0,36.9,29.8,07.5,0000.0,0006.73,0002.12,0001.20
2022-03-14 21:08:00,,0829.5,5.00,0.00,28.0,27.4,00.0,36.9,29.8,07.5,0000.0,0006.75,0002.10,0001.21
2022-03-14 21:09:00,,0829.5,5.00,0.00,28.0,27.4,00.0,36.9,29.8,07.5,0000.0,0007.50,0002.12,0001.23
2022-03-14 21:10:00,,0829.5,5.00,0.00,28.0,27.3,00.0,36.9,29.8,07.3,0000.0,0007.02,0002.08,0001.26
2022-03-14 21:11:00,,0829.5,4.99,0.00,28.0,27.3,00.0,36.9,29.8,07.1,0000.0,0006.96,0002.09,0001.28
2022-03-14 21:12:00,,0829.6,5.00,0.00,28.0,27.3,00.0,36.9,29.8,07.1,0000.0,0006.95,0002.09,0001.30
2022-03-14 21:13:00,,0829.5,5.01,0.00,28.0,27.3,00.0,36.9,29.8,07.1,0000.0,0007.35,0002.09,0001.31
2022-03-14 21:14:00,,0829.5,5.00,0.00,28.0,27.3,00.0,36.9,29.8,07.0,0000.0,0007.45,0002.11,0001.33
2022-03-14 21:15:00,,0829.5,5.02,0.00,28.0,27.3,00.0,36.9,29.8,07.1,0000.0,0006.65,0002.15,0001.35
2022-03-14 21:16:00,,0829.5,5.00,0.00,28.1,27.3,00.0,36.9,29.9,07.0,0000.0,0006.13,0002.11,0001.37
2022-03-14 21:17:00,,0829.5,5.00,0.00,28.1,27.4,00.0,36.9,29.9,06.9,0000.0,0006.88,0002.11,0001.37
2022-03-14 21:18:00,,0829.5,5.00,0.00,28.1,27.4,00.0,36.9,29.9,07.0,0000.0,0007.56,0002.16,0001.36
2022-03-14 21:19:00,,0829.5,5.00,0.00,28.1,27.4,00.0,36.9,29.9,07.1,0000.0,0007.32,0002.15,0001.36
2022-03-14 21:20:00,,0829.5,5.00,0.00,28.1,27.5,00.0,36.9,30.0,07.2,0000.0,0007.33,0002.12,0001.34
2022-03-14 21:21:00,,0829.5,5.00,0.00,28.1,27.5,00.0,37.0,30.0,07.2,0000.0,0007.44,0002.12,0001.33
2022-03-14 21:22:00,,0829.5,5.00,0.00,28.1,27.5,00.0,37.0,30.0,07.3,0000.0,0007.46,0002.13,0001.34
2022-03-14 21:23:00,,0829.5,5.00,0.00,28.2,27.5,00.0,37.0,30.0,07.1,0000.0,0007.63,0002.19,0001.37
2022-03-14 21:24:00,,0829.5,5.01,0.00,28.1,27.5,00.0,37.0,29.9,07.3,0000.0,0007.43,0002.24,0001.38
2022-03-14 21:25:00,,0829.5,5.00,0.00,28.1,27.5,00.0,37.0,29.9,07.3,0000.0,0007.39,0002.24,0001.39
2022-03-14 21:26:00,,0829.6,5.00,0.00,28.2,27.5,00.0,37.0,30.0,07.1,0000.0,0007.25,0002.17,0001.39
2022-03-14 21:27:00,,0829.5,5.00,0.00,28.2,27.5,00.0,37.0,30.0,07.0,0000.0,0007.27,0002.16,0001.39
2022-03-14 21:28:00,,0829.5,5.00,0.00,28.2,27.5,00.0,37.0,30.0,07.1,0000.0,0006.32,0002.15,0001.40
2022-03-14 21:29:00,,0829.5,5.00,0.00,28.2,27.5,00.0,37.0,30.0,07.3,0000.0,0005.46,0002.17,0001.42
2022-03-14 21:30:00,,0829.5,5.00,0.00,28.2,27.5,00.0,37.0,30.0,07.1,0000.0,0005.49,0002.22,0001.45
2022-03-14 21:31:00,,0829.5,5.01,0.00,28.2,27.5,00.0,37.0,29.9,07.2,0000.0,0004.61,0002.21,0001.48
2022-03-14 21:32:00,,0829.5,5.00,0.00,28.2,27.5,00.0,37.0,29.9,07.1,0000.0,0004.09,0002.22,0001.51
2022-03-14 21:33:00,,0829.4,5.00,0.00,28.2,27.4,00.0,37.0,29.9,07.0,0000.0,0004.60,0002.25,0001.52
2022-03-14 21:34:00,,0829.4,4.98,0.00,28.2,27.5,00.0,37.0,30.0,07.2,0000.0,0004.33,0002.21,0001.53
2022-03-14 21:35:00,,0829.4,5.00,0.00,28.2,27.5,00.0,37.0,30.0,07.3,0000.0,0004.41,0002.20,0001.54
2022-03-14 21:36:00,,0829.4,5.01,0.00,28.2,27.5,00.0,37.1,30.0,07.3,0000.0,0004.50,0002.21,0001.56
2022-03-14 21:37:00,,0829.4,5.00,0.00,28.2,27.5,00.0,37.1,30.0,07.1,0000.0,0005.21,0002.25,0001.57
2022-03-14 21:38:00,,0829.4,5.00,0.00,28.2,27.5,00.0,37.1,30.0,07.3,0000.0,0005.32,0002.30,0001.58
2022-03-14 21:39:00,,0829.4,5.00,0.00,28.2,27.5,00.0,37.1,30.0,07.2,0000.0,0005.42,0002.34,0001.60
2022-03-14 21:40:00,,0829.3,5.01,0.00,28.2,27.6,00.0,37.1,30.0,07.4,0000.0,0005.34,0002.31,0001.61
2022-03-14 21:41:00,,0829.3,5.00,0.00,28.2,27.6,00.0,37.1,30.0,07.3,0000.0,0005.28,0002.28,0001.61
2022-03-14 21:42:00,,0829.2,5.00,0.00,28.2,27.6,00.0,37.1,30.0,07.3,0000.0,0005.46,0002.33,0001.62
2022-03-14 21:43:00,,0829.2,5.01,0.00,28.2,27.6,00.0,37.1,30.0,07.6,0000.0,0005.59,0002.39,0001.68
2022-03-14 21:44:00,,0829.4,5.01,0.00,28.2,27.6,00.0,37.1,30.0,07.3,0000.0,0005.10,0002.44,0001.70
2022-03-14 21:45:00,,0829.4,4.99,0.00,28.2,27.6,00.0,37.1,29.9,07.3,0000.0,0007.02,0002.54,0001.76
2022-03-14 21:46:00,,0829.3,5.00,0.00,28.2,27.6,00.0,37.1,29.9,07.3,0000.0,0007.77,0002.62,0001.84
2022-03-14 21:47:00,,0829.3,5.00,0.00,28.2,27.5,00.0,37.1,29.9,07.5,0000.0,0007.80,0002.74,0001.93
2022-03-14 21:48:00,,0829.3,4.99,0.00,28.2,27.5,00.0,37.1,29.9,07.2,0000.0,0007.60,0002.85,0002.02
2022-03-14 21:49:00,,0829.4,5.01,0.00,28.1,27.4,00.0,37.1,29.9,07.3,0000.0,0007.66,0002.93,0002.09
2022-03-14 21:50:00,,0829.4,5.00,0.00,28.1,27.4,00.0,37.1,29.9,07.5,0000.0,0007.68,0002.96,0002.15
2022-03-14 21:51:00,,0829.7,5.00,0.00,28.1,27.4,00.0,37.1,29.9,07.6,0000.0,0007.75,0003.00,0002.21
2022-03-14 21:52:00,,0829.3,5.00,0.00,28.1,27.4,00.0,37.1,29.9,07.5,0000.0,0007.89,0003.06,0002.29
2022-03-14 21:53:00,,0829.4,5.01,0.00,28.1,27.4,00.0,37.1,29.9,07.3,0000.0,0008.01,0003.14,0002.37
2022-03-14 21:54:00,,0829.5,5.00,0.00,28.1,27.4,00.0,37.1,29.8,07.2,0000.0,0008.09,0003.19,0002.42
2022-03-14 21:55:00,,0829.4,5.00,0.00,28.1,27.5,00.0,37.1,29.9,07.4,0000.0,0008.25,0003.24,0002.46
2022-03-14 21:56:00,,0829.4,4.98,0.00,28.1,27.5,00.0,37.1,29.9,07.6,0000.0,0007.54,0003.26,0002.48
2022-03-14 21:57:00,,0829.3,5.00,0.00,28.1,27.5,00.0,37.1,29.9,07.3,0000.0,0006.35,0003.28,0002.49
2022-03-14 21:58:00,,0829.4,5.01,0.00,28.1,27.5,00.0,37.1,29.8,07.3,0000.0,0006.32,0003.28,0002.48
2022-03-14 21:59:00,,0829.5,5.01,0.00,28.1,27.5,00.0,37.1,29.8,07.3,0000.0,0006.28,0003.27,0002.49
